DN9EM-1 Weather Reports


time (UTC)temp
C
wind
direction
speed
KPH
gust
KPH
rain 1hr
cm
rain 24hr
cm
rain mn
cm
humidity
%
barometer
mb
20260503054613 15 0.0 0.0 0.00 0.15 0.15 88 1014.0
20260503053611 14 0.0 0.0 0.00 0.15 0.15 91 1014.1
20260503052608 13 0.0 0.0 0.00 0.15 0.15 92 1014.1
20260503051605 12 0.0 0.0 0.00 0.15 0.15 92 1014.1
20260503050603 12 0.0 0.0 0.03 0.15 0.15 92 1013.9
20260503045600 12 0.0 0.0 0.03 0.15 0.15 92 1014.1
20260503044558 12 0.0 0.0 0.03 0.15 0.15 92 1014.1
20260503043555 12 0.0 0.0 0.03 0.15 0.15 92 1014.1
20260503042553 12 0.0 0.0 0.03 0.15 0.15 92 1014.1
20260503041550 12 0.0 0.0 0.03 0.15 0.15 92 1014.0
20260503040547 12 0.0 0.0 0.00 0.13 0.13 92 1014.0
20260503035545 12 0.0 0.0 0.00 0.13 0.13 92 1014.1
20260503034542 12 0.0 0.0 0.00 0.13 0.13 92 1014.0
20260503033540 12 0.0 0.0 0.00 0.13 0.13 92 1014.0
20260503032537 13 0.0 0.0 0.00 0.13 0.13 92 1014.1
20260503031535 13 0.0 0.0 0.00 0.13 0.13 92 1014.0
20260503030532 13 0.0 0.0 0.00 0.13 0.13 92 1014.2
20260503025530 12 0.0 0.0 0.00 0.13 0.13 91 1014.2
20260503024527 13 0.0 0.0 0.00 0.13 0.13 91 1014.3
20260503023524 13 0.0 0.0 0.00 0.13 0.13 91 1014.4
20260503022522 13 0.0 0.0 0.00 0.13 0.13 91 1014.3
20260503021519 13 0.0 0.0 0.00 0.13 0.13 91 1014.3
20260503020517 13 0.0 0.0 0.00 0.13 0.13 91 1014.4
20260503015614 13 0.0 0.0 0.00 0.13 0.13 91 1014.5
20260503014612 13 0.0 0.0 0.00 0.13 0.13 91 1014.7
20260503013609 13 0.0 3.2 0.00 0.13 0.13 91 1014.7
20260503012607 13 0.0 3.2 0.03 0.13 0.13 91 1014.9
20260503011604 13 0.0 3.2 0.03 0.13 0.13 90 1015.0
20260503010602 13 0.0 0.0 0.10 0.13 0.13 90 1015.1
20260503005559 13 0.0 0.0 0.10 0.13 0.13 90 1015.3
20260503004556 13 0.0 0.0 0.10 0.13 0.13 89 1015.6
20260503003554 13 0.0 0.0 0.13 0.13 0.13 89 1015.8
20260503002551 13 0.0 3.2 0.10 0.10 0.10 88 1015.8
20260503001549 14 0.0 0.0 0.10 0.10 0.10 87 1016.0
20260503000546 14 0.0 0.0 0.03 0.03 0.03 86 1016.5
20260502235544 14 0.0 0.0 0.03 0.03 0.03 86 1016.9
20260502234541 14 0.0 3.2 0.03 0.03 0.03 85 1017.1
20260502233538 14 0.0 3.2 0.00 0.00 0.00 82 1016.9
20260502232536 13 0.0 0.0 0.00 0.00 0.00 82 1016.7
20260502231533 13 180 0.0 3.2 0.00 0.00 0.00 82 1016.2
20260502230531 14 0.0 0.0 0.00 0.00 0.00 81 1016.0
20260502225528 14 0.0 0.0 0.00 0.00 0.00 81 1016.1
20260502224526 14 0.0 0.0 0.00 0.00 0.00 81 1016.3
20260502223523 14 0.0 0.0 0.00 0.00 0.00 81 1016.2
20260502222521 14 0.0 0.0 0.00 0.00 0.00 82 1016.1
20260502221518 14 0.0 0.0 0.00 0.00 0.00 82 1016.1
20260502220516 14 0.0 0.0 0.00 0.00 0.00 82 1016.3
20260502215613 14 0.0 0.0 0.00 0.00 0.00 81 1016.2
20260502214611 14 0.0 0.0 0.00 0.00 0.00 80 1016.3
20260502213608 14 0.0 0.0 0.00 0.00 0.00 80 1016.2
20260502212605 14 0.0 0.0 0.00 0.00 0.00 79 1016.4
20260502211603 14 0.0 0.0 0.00 0.00 0.00 79 1016.4
20260502210600 14 0.0 0.0 0.00 0.00 0.00 78 1016.6
20260502205558 14 0.0 0.0 0.00 0.00 0.00 77 1016.7
20260502204555 14 0.0 0.0 0.00 0.00 0.00 77 1016.7
20260502203553 14 0.0 0.0 0.00 0.00 0.00 76 1016.7
20260502202550 14 0.0 0.0 0.00 0.00 0.00 74 1016.7
20260502201547 15 0.0 0.0 0.00 0.00 0.00 72 1016.5
20260502200545 15 0.0 0.0 0.00 0.00 0.00 71 1016.7
20260502195542 16 0.0 0.0 0.00 0.00 0.00 69 1016.7
20260502194540 16 0.0 0.0 0.00 0.00 0.00 67 1016.7
20260502193537 17 0.0 0.0 0.00 0.00 0.00 65 1016.6
20260502192535 17 0.0 0.0 0.00 0.00 0.00 64 1016.6
20260502191532 17 0.0 0.0 0.00 0.00 0.00 63 1016.6
20260502190530 17 0.0 0.0 0.00 0.00 0.00 62 1016.6
20260502185527 17 0.0 3.2 0.00 0.00 0.00 60 1016.6
20260502184524 18 0.0 3.2 0.00 0.00 0.00 59 1016.6
20260502183522 18 0.0 0.0 0.00 0.00 0.00 57 1016.5
20260502182519 18 0.0 0.0 0.00 0.00 0.00 55 1016.6
20260502181517 18 0.0 3.2 0.00 0.00 0.00 54 1016.4
20260502180615 19 135 0.0 3.2 0.00 0.00 0.00 53 1016.5
20260502163551 25 0.0 3.2 0.00 0.00 0.00 41 1015.9
20260502162549 25 0.0 3.2 0.00 0.00 0.00 40 1015.9
20260502161546 26 0.0 3.2 0.00 0.00 0.00 39 1016.0
20260502160544 26 113 0.0 3.2 0.00 0.00 0.00 38 1016.1
20260502151531 26 180 0.0 3.2 0.00 0.00 0.00 37 1016.4
20260502150528 26 45 0.0 3.2 0.00 0.00 0.00 37 1016.5
20260502130558 27 0.0 3.2 0.00 0.00 0.00 30 1017.8
20260502123550 27 348 1.6 6.4 0.00 0.00 0.00 29 1018.2
20260502122548 27 156 1.6 6.4 0.00 0.00 0.00 30 1018.3
20260502121545 26 190 1.6 6.4 0.00 0.00 0.00 33 1018.3
20260502120542 27 180 1.6 6.4 0.00 0.00 0.00 33 1018.4
20260502115540 27 293 0.0 6.4 0.00 0.00 0.00 33 1018.4
20260502114537 27 144 1.6 9.7 0.00 0.00 0.00 33 1018.6
20260502113535 27 195 3.2 11.3 0.00 0.00 0.00 34 1018.7
20260502112532 26 197 3.2 11.3 0.00 0.00 0.00 34 1018.8
20260502111530 26 184 3.2 11.3 0.00 0.00 0.00 34 1019.0
20260502110527 26 152 1.6 6.4 0.00 0.00 0.00 35 1019.2
20260502105524 26 175 4.8 14.5 0.00 0.00 0.00 35 1019.2
20260502104522 26 231 1.6 9.7 0.00 0.00 0.00 35 1019.2
20260502103519 27 189 1.6 12.9 0.00 0.00 0.00 35 1019.4
20260502102517 27 189 1.6 6.4 0.00 0.00 0.00 35 1019.5
20260502101614 27 168 3.2 6.4 0.00 0.00 0.00 35 1019.7
20260502100612 27 180 0.0 3.2 0.00 0.00 0.00 36 1019.9
20260502090557 25 158 0.0 3.2 0.00 0.00 0.00 40 1020.5
20260502071528 21 0 0.0 6.4 0.00 0.00 0.00 47 1021.4
20260502070526 21 181 1.6 6.4 0.00 0.00 0.00 47 1021.3
20260502065523 20 180 1.6 6.4 0.00 0.00 0.00 48 1021.4
20260502064521 20 184 1.6 6.4 0.00 0.00 0.00 49 1021.5
20260502063518 20 186 0.0 6.4 0.00 0.00 0.00 50 1021.5
20260502062516 19 187 1.6 6.4 0.00 0.00 0.00 52 1021.4
20260502061613 18 180 1.6 9.7 0.00 0.00 0.00 52 1021.5
20260502060610 18 180 1.6 6.4 0.00 0.00 0.00 55 1021.5